User: anonymous   Login
Location: Balaclava NSW 2575, Australia
(34.4510°S, 150.4953°E)
Time: 10:12:00
(UTC+10:00)
Language:

N. Korean satellite - Orbit

View from above orbital plane
View from above orbital plane
View from above satellite
View from above satellite

Ground track
Ground track

The orbit data is extracted from the following two-line orbital elements,

1 39026U 12072A   21175.54693485  .00002527  00000-0  87259-4 0  9993
2 39026  97.2435 168.2380 0035606   2.2968 357.8430 15.30273299474115
Epoch (UTC): 24 June 2021 13:07:35
Eccentricity: 0.0035606
inclination: 97.2435°
perigee height: 450 km
apogee height: 499 km
right ascension of ascending node: 168.2380°
argument of perigee: 2.2968°
revolutions per day: 15.30273299
mean anomaly at epoch: 357.8430°
orbit number at epoch: 47411

The dashed part of the orbit path shows where the satellite is in the earth's shadow,  

DLR